| time (UTC) | temp F | wind direction | speed MPH | gust MPH | rain 1hr in | rain 24hr in | rain mn in | humidity % | barometer mb |
| 20260509192003 | 67 | 0 | 0.0 | 1.0 | 0.00 | 0.00 | 0.00 | 73 | 1016.7 |
| 20260509191503 | 67 | 0 | 0.0 | 1.0 | 0.00 | 0.00 | 0.00 | 73 | 1016.8 |
| 20260509191004 | 67 | 0 | 0.0 | 1.0 | 0.00 | 0.00 | 0.00 | 72 | 1016.7 |
| 20260509190504 | 67 | 0 | 0.0 | 1.0 | 0.00 | 0.00 | 0.00 | 72 | 1016.7 |
| 20260509190004 | 68 | 0 | 0.0 | 2.0 | 0.00 | 0.00 | 0.00 | 71 | 1016.6 |
| 20260509185503 | 68 | 0 | 0.0 | 2.0 | 0.00 | 0.00 | 0.00 | 71 | 1016.7 |
| 20260509185004 | 68 | 0 | 0.0 | 2.0 | 0.00 | 0.00 | 0.00 | 70 | 1016.8 |
| 20260509184504 | 68 | 0 | 0.0 | 3.0 | 0.00 | 0.00 | 0.00 | 70 | 1016.7 |
| 20260509184003 | 68 | 0 | 0.0 | 3.0 | 0.00 | 0.00 | 0.00 | 69 | 1016.6 |
| 20260509183503 | 68 | 0 | 0.0 | 3.0 | 0.00 | 0.00 | 0.00 | 69 | 1016.6 |
| 20260509183004 | 68 | 225 | 1.0 | 2.0 | 0.00 | 0.00 | 0.00 | 69 | 1016.6 |
| 20260509182503 | 69 | 0 | 0.0 | 2.0 | 0.00 | 0.00 | 0.00 | 69 | 1016.5 |
| 20260509182003 | 69 | 225 | 1.0 | 2.0 | 0.00 | 0.00 | 0.00 | 68 | 1016.5 |
| 20260509181503 | 69 | 0 | 0.0 | 2.0 | 0.00 | 0.00 | 0.00 | 68 | 1016.5 |
| 20260509181004 | 69 | 225 | 2.0 | 3.0 | 0.00 | 0.00 | 0.00 | 68 | 1016.4 |
| 20260509180503 | 69 | 0 | 0.0 | 3.0 | 0.00 | 0.00 | 0.00 | 68 | 1016.2 |
| 20260509180003 | 69 | 241 | 1.0 | 2.0 | 0.00 | 0.00 | 0.00 | 67 | 1016.1 |
| 20260509175503 | 69 | 0 | 0.0 | 2.0 | 0.00 | 0.00 | 0.00 | 67 | 1016.0 |
| 20260509175004 | 69 | 265 | 1.0 | 2.0 | 0.00 | 0.00 | 0.00 | 67 | 1016.0 |
| 20260509174503 | 70 | 281 | 1.0 | 2.0 | 0.00 | 0.00 | 0.00 | 66 | 1015.9 |
| 20260509174003 | 70 | 0 | 0.0 | 2.0 | 0.00 | 0.00 | 0.00 | 66 | 1015.8 |
| 20260509173503 | 70 | 230 | 1.0 | 2.0 | 0.00 | 0.00 | 0.00 | 66 | 1015.8 |
| 20260509173004 | 70 | 0 | 0.0 | 4.0 | 0.00 | 0.00 | 0.00 | 66 | 1015.7 |
| 20260509172503 | 70 | 0 | 0.0 | 4.0 | 0.00 | 0.00 | 0.00 | 66 | 1015.7 |
| 20260509172003 | 71 | 135 | 1.0 | 4.0 | 0.00 | 0.00 | 0.00 | 65 | 1015.7 |
| 20260509171503 | 71 | 132 | 1.0 | 4.0 | 0.00 | 0.00 | 0.00 | 65 | 1015.7 |
| 20260509171004 | 71 | 131 | 1.0 | 4.0 | 0.00 | 0.00 | 0.00 | 65 | 1015.7 |
| 20260509170504 | 71 | 133 | 1.0 | 4.0 | 0.00 | 0.00 | 0.00 | 64 | 1015.7 |
| 20260509170003 | 72 | 0 | 0.0 | 4.0 | 0.00 | 0.00 | 0.00 | 64 | 1015.6 |
| 20260509165503 | 72 | 132 | 1.0 | 4.0 | 0.00 | 0.00 | 0.00 | 63 | 1015.7 |
| 20260509165004 | 72 | 176 | 1.0 | 4.0 | 0.00 | 0.00 | 0.00 | 62 | 1015.7 |
| 20260509164503 | 72 | 0 | 0.0 | 4.0 | 0.00 | 0.00 | 0.00 | 62 | 1015.7 |
| 20260509164003 | 72 | 225 | 1.0 | 4.0 | 0.00 | 0.00 | 0.00 | 62 | 1015.7 |
| 20260509163503 | 73 | 225 | 1.0 | 4.0 | 0.00 | 0.00 | 0.00 | 62 | 1015.4 |
| 20260509163004 | 73 | 0 | 0.0 | 4.0 | 0.00 | 0.00 | 0.00 | 62 | 1015.5 |
| 20260509162503 | 73 | 225 | 1.0 | 4.0 | 0.00 | 0.00 | 0.00 | 62 | 1015.4 |
| 20260509162003 | 73 | 230 | 2.0 | 4.0 | 0.00 | 0.00 | 0.00 | 62 | 1015.4 |
| 20260509161503 | 73 | 237 | 1.0 | 6.0 | 0.00 | 0.00 | 0.00 | 61 | 1015.5 |
| 20260509161004 | 73 | 240 | 2.0 | 6.0 | 0.00 | 0.00 | 0.00 | 61 | 1015.5 |
| 20260509160503 | 73 | 237 | 2.0 | 5.0 | 0.00 | 0.00 | 0.00 | 61 | 1015.5 |
| 20260509160003 | 73 | 231 | 3.0 | 5.0 | 0.00 | 0.00 | 0.00 | 60 | 1015.5 |
| 20260509155504 | 74 | 225 | 3.0 | 6.0 | 0.00 | 0.00 | 0.00 | 60 | 1015.5 |
| 20260509155004 | 74 | 237 | 2.0 | 6.0 | 0.00 | 0.00 | 0.00 | 60 | 1015.4 |
| 20260509154503 | 74 | 241 | 2.0 | 7.0 | 0.00 | 0.00 | 0.00 | 60 | 1015.3 |
| 20260509154003 | 73 | 229 | 2.0 | 7.0 | 0.00 | 0.00 | 0.00 | 60 | 1015.3 |
| 20260509153504 | 74 | 225 | 3.0 | 8.0 | 0.00 | 0.00 | 0.00 | 60 | 1015.3 |
| 20260509153004 | 73 | 234 | 2.0 | 8.0 | 0.00 | 0.00 | 0.00 | 60 | 1015.4 |
| 20260509152503 | 74 | 255 | 3.0 | 8.0 | 0.00 | 0.01 | 0.00 | 59 | 1015.4 |
| 20260509152003 | 76 | 253 | 3.0 | 8.0 | 0.00 | 0.01 | 0.00 | 52 | 1015.2 |
| 20260509151504 | 74 | 243 | 1.0 | 8.0 | 0.00 | 0.01 | 0.00 | 56 | 1015.4 |
| 20260509151004 | 75 | 261 | 2.0 | 6.0 | 0.00 | 0.02 | 0.00 | 55 | 1015.4 |
| 20260509150503 | 76 | 251 | 3.0 | 5.0 | 0.00 | 0.02 | 0.00 | 52 | 1015.4 |
| 20260509150004 | 76 | 225 | 1.0 | 5.0 | 0.00 | 0.02 | 0.00 | 51 | 1015.2 |
| 20260509145503 | 76 | 225 | 1.0 | 6.0 | 0.00 | 0.02 | 0.00 | 47 | 1015.2 |
| 20260509145003 | 76 | 225 | 1.0 | 6.0 | 0.00 | 0.02 | 0.00 | 47 | 1015.2 |
| 20260509144504 | 76 | 225 | 3.0 | 6.0 | 0.00 | 0.02 | 0.00 | 47 | 1015.2 |
| 20260509144003 | 76 | 225 | 2.0 | 7.0 | 0.00 | 0.02 | 0.00 | 46 | 1015.2 |
| 20260509143503 | 76 | 231 | 2.0 | 7.0 | 0.00 | 0.02 | 0.00 | 46 | 1015.2 |
| 20260509143004 | 76 | 233 | 4.0 | 7.0 | 0.00 | 0.02 | 0.00 | 46 | 1015.2 |
| 20260509142504 | 77 | 227 | 2.0 | 7.0 | 0.00 | 0.02 | 0.00 | 46 | 1015.2 |
| 20260509142003 | 77 | 231 | 1.0 | 5.0 | 0.00 | 0.02 | 0.00 | 46 | 1015.1 |
| 20260509141503 | 77 | 0 | 0.0 | 5.0 | 0.00 | 0.02 | 0.00 | 46 | 1015.2 |
| 20260509141004 | 77 | 230 | 2.0 | 6.0 | 0.00 | 0.02 | 0.00 | 46 | 1015.2 |
| 20260509140503 | 77 | 241 | 1.0 | 6.0 | 0.00 | 0.02 | 0.00 | 46 | 1015.2 |
| 20260509140005 | 77 | 0 | 0.0 | 7.0 | 0.00 | 0.02 | 0.00 | 47 | 1015.3 |
| 20260509135503 | 77 | 236 | 1.0 | 7.0 | 0.00 | 0.02 | 0.00 | 47 | 1015.2 |
| 20260509135003 | 77 | 0 | 0.0 | 8.0 | 0.00 | 0.02 | 0.00 | 47 | 1015.3 |
| 20260509134503 | 77 | 232 | 2.0 | 8.0 | 0.00 | 0.02 | 0.00 | 46 | 1015.2 |
| 20260509134004 | 78 | 265 | 1.0 | 5.0 | 0.00 | 0.02 | 0.00 | 47 | 1015.3 |
| 20260509133503 | 77 | 237 | 1.0 | 6.0 | 0.00 | 0.02 | 0.00 | 47 | 1015.3 |
| 20260509133004 | 78 | 219 | 2.0 | 6.0 | 0.00 | 0.02 | 0.00 | 46 | 1015.3 |
| 20260509132503 | 78 | 0 | 0.0 | 4.0 | 0.00 | 0.02 | 0.00 | 47 | 1015.2 |
| 20260509132004 | 78 | 0 | 0.0 | 4.0 | 0.00 | 0.02 | 0.00 | 46 | 1015.3 |
| 20260509131503 | 79 | 129 | 1.0 | 7.0 | 0.00 | 0.02 | 0.00 | 45 | 1015.3 |
| 20260509131003 | 79 | 243 | 2.0 | 7.0 | 0.00 | 0.02 | 0.00 | 45 | 1015.4 |
| 20260509130504 | 78 | 263 | 2.0 | 5.0 | 0.00 | 0.02 | 0.00 | 46 | 1015.4 |
| 20260509130004 | 78 | 254 | 2.0 | 5.0 | 0.00 | 0.02 | 0.00 | 46 | 1015.5 |
| 20260509125503 | 78 | 222 | 1.0 | 5.0 | 0.00 | 0.02 | 0.00 | 46 | 1015.4 |
| 20260509125003 | 78 | 227 | 2.0 | 8.0 | 0.00 | 0.02 | 0.00 | 45 | 1015.4 |
| 20260509124504 | 79 | 246 | 2.0 | 10.0 | 0.00 | 0.02 | 0.00 | 44 | 1015.4 |
| 20260509124004 | 81 | 257 | 2.0 | 10.0 | 0.00 | 0.02 | 0.00 | 41 | 1015.4 |
| 20260509123503 | 81 | 237 | 2.0 | 5.0 | 0.00 | 0.02 | 0.00 | 39 | 1015.5 |
| 20260509123003 | 82 | 235 | 2.0 | 8.0 | 0.00 | 0.02 | 0.00 | 39 | 1015.4 |
| 20260509122503 | 83 | 224 | 2.0 | 8.0 | 0.00 | 0.02 | 0.00 | 37 | 1015.4 |
| 20260509122004 | 82 | 177 | 2.0 | 7.0 | 0.00 | 0.02 | 0.00 | 36 | 1015.4 |
| 20260509121504 | 82 | 232 | 1.0 | 7.0 | 0.00 | 0.02 | 0.00 | 39 | 1015.3 |
| 20260509121003 | 83 | 0 | 0.0 | 6.0 | 0.00 | 0.02 | 0.00 | 37 | 1015.4 |
| 20260509120503 | 84 | 227 | 2.0 | 6.0 | 0.00 | 0.02 | 0.00 | 36 | 1015.4 |
| 20260509120004 | 83 | 0 | 0.0 | 5.0 | 0.00 | 0.02 | 0.00 | 37 | 1015.4 |
| 20260509115504 | 84 | 231 | 1.0 | 4.0 | 0.00 | 0.02 | 0.00 | 36 | 1015.4 |
| 20260509115003 | 83 | 0 | 0.0 | 4.0 | 0.00 | 0.02 | 0.00 | 37 | 1015.4 |
| 20260509114503 | 83 | 0 | 0.0 | 6.0 | 0.00 | 0.04 | 0.00 | 38 | 1015.4 |
| 20260509114004 | 82 | 0 | 0.0 | 7.0 | 0.00 | 0.04 | 0.00 | 38 | 1015.5 |
| 20260509113503 | 82 | 258 | 1.0 | 7.0 | 0.00 | 0.04 | 0.00 | 37 | 1015.5 |
| 20260509113003 | 82 | 232 | 3.0 | 7.0 | 0.00 | 0.04 | 0.00 | 36 | 1015.6 |
| 20260509112503 | 82 | 231 | 2.0 | 4.0 | 0.00 | 0.05 | 0.00 | 37 | 1015.5 |
| 20260509112004 | 82 | 336 | 1.0 | 4.0 | 0.00 | 0.05 | 0.00 | 37 | 1015.6 |
| 20260509111503 | 82 | 0 | 0.0 | 5.0 | 0.00 | 0.05 | 0.00 | 40 | 1015.6 |
| 20260509111003 | 82 | 244 | 1.0 | 5.0 | 0.00 | 0.05 | 0.00 | 40 | 1015.7 |
| 20260509110503 | 82 | 231 | 3.0 | 5.0 | 0.00 | 0.05 | 0.00 | 38 | 1015.7 |
| 20260509110004 | 82 | 0 | 0.0 | 2.0 | 0.00 | 0.05 | 0.00 | 42 | 1015.7 |
| 20260509105504 | 81 | 0 | 0.0 | 3.0 | 0.00 | 0.05 | 0.00 | 43 | 1015.8 |
| 20260509105003 | 80 | 0 | 0.0 | 3.0 | 0.00 | 0.05 | 0.00 | 44 | 1015.8 |
| 20260509104503 | 79 | 0 | 0.0 | 4.0 | 0.00 | 0.06 | 0.00 | 46 | 1015.9 |
| 20260509104004 | 77 | 0 | 0.0 | 6.0 | 0.00 | 0.06 | 0.00 | 49 | 1015.9 |
| 20260509103503 | 76 | 225 | 2.0 | 6.0 | 0.00 | 0.06 | 0.00 | 48 | 1016.0 |
| 20260509103004 | 76 | 225 | 1.0 | 4.0 | 0.00 | 0.06 | 0.00 | 48 | 1016.0 |
| 20260509102504 | 75 | 0 | 0.0 | 4.0 | 0.00 | 0.06 | 0.00 | 48 | 1016.1 |
| 20260509102003 | 75 | 0 | 0.0 | 4.0 | 0.00 | 0.06 | 0.00 | 47 | 1016.1 |
| 20260509101503 | 76 | 279 | 1.0 | 4.0 | 0.00 | 0.06 | 0.00 | 47 | 1016.2 |
| 20260509101004 | 76 | 260 | 1.0 | 4.0 | 0.00 | 0.06 | 0.00 | 47 | 1016.2 |
| 20260509100504 | 76 | 250 | 1.0 | 7.0 | 0.00 | 0.07 | 0.00 | 47 | 1016.2 |
| 20260509100004 | 76 | 241 | 1.0 | 7.0 | 0.00 | 0.07 | 0.00 | 46 | 1016.2 |
| 20260509095503 | 77 | 228 | 2.0 | 5.0 | 0.00 | 0.07 | 0.00 | 44 | 1016.3 |
| 20260509095004 | 77 | 129 | 1.0 | 3.0 | 0.00 | 0.07 | 0.00 | 44 | 1016.4 |
| 20260509094504 | 77 | 0 | 0.0 | 3.0 | 0.00 | 0.08 | 0.00 | 45 | 1016.5 |
| 20260509094004 | 77 | 145 | 1.0 | 2.0 | 0.00 | 0.08 | 0.00 | 43 | 1016.5 |
| 20260509093503 | 77 | 0 | 0.0 | 4.0 | 0.00 | 0.08 | 0.00 | 44 | 1016.6 |
| 20260509093004 | 77 | 0 | 0.0 | 4.0 | 0.00 | 0.08 | 0.00 | 44 | 1016.6 |
| 20260509092504 | 77 | 0 | 0.0 | 4.0 | 0.00 | 0.08 | 0.00 | 48 | 1016.6 |
| 20260509092003 | 76 | 265 | 2.0 | 4.0 | 0.00 | 0.08 | 0.00 | 48 | 1016.7 |
| 20260509091503 | 76 | 0 | 0.0 | 4.0 | 0.00 | 0.08 | 0.00 | 50 | 1016.8 |
| 20260509091004 | 76 | 0 | 0.0 | 3.0 | 0.00 | 0.08 | 0.00 | 50 | 1016.8 |
| 20260509090503 | 76 | 218 | 1.0 | 3.0 | 0.00 | 0.08 | 0.00 | 50 | 1016.7 |
| 20260509090003 | 76 | 150 | 1.0 | 3.0 | 0.00 | 0.08 | 0.00 | 50 | 1016.7 |
| 20260509085503 | 75 | 0 | 0.0 | 2.0 | 0.00 | 0.08 | 0.00 | 52 | 1016.8 |
| 20260509085004 | 75 | 135 | 1.0 | 2.0 | 0.00 | 0.08 | 0.00 | 52 | 1016.8 |
| 20260509084503 | 75 | 0 | 0.0 | 2.0 | 0.00 | 0.08 | 0.00 | 54 | 1016.9 |
| 20260509084003 | 74 | 0 | 0.0 | 2.0 | 0.00 | 0.08 | 0.00 | 55 | 1016.9 |
| 20260509083503 | 73 | 0 | 0.0 | 2.0 | 0.00 | 0.08 | 0.00 | 57 | 1017.0 |
| 20260509083004 | 72 | 0 | 0.0 | 3.0 | 0.00 | 0.08 | 0.00 | 57 | 1017.0 |
| 20260509082503 | 72 | 0 | 0.0 | 3.0 | 0.00 | 0.08 | 0.00 | 58 | 1017.0 |
| 20260509082003 | 72 | 0 | 0.0 | 3.0 | 0.00 | 0.08 | 0.00 | 61 | 1017.0 |
| 20260509081503 | 71 | 0 | 0.0 | 3.0 | 0.00 | 0.08 | 0.00 | 62 | 1017.0 |
| 20260509081004 | 71 | 0 | 0.0 | 2.0 | 0.00 | 0.08 | 0.00 | 62 | 1016.9 |
| 20260509080504 | 72 | 225 | 1.0 | 2.0 | 0.00 | 0.08 | 0.00 | 65 | 1017.0 |
| 20260509080003 | 72 | 0 | 0.0 | 2.0 | 0.00 | 0.08 | 0.00 | 65 | 1017.0 |
| 20260509075503 | 71 | 0 | 0.0 | 2.0 | 0.00 | 0.08 | 0.00 | 67 | 1016.9 |
| 20260509075004 | 70 | 0 | 0.0 | 2.0 | 0.00 | 0.08 | 0.00 | 70 | 1017.2 |
| 20260509074504 | 70 | 0 | 0.0 | 2.0 | 0.00 | 0.08 | 0.00 | 71 | 1017.0 |
| 20260509074003 | 70 | 0 | 0.0 | 3.0 | 0.00 | 0.08 | 0.00 | 71 | 1017.2 |
| 20260509073503 | 69 | 0 | 0.0 | 3.0 | 0.00 | 0.08 | 0.00 | 73 | 1017.0 |
| 20260509073004 | 69 | 0 | 0.0 | 3.0 | 0.00 | 0.08 | 0.00 | 75 | 1017.1 |
| 20260509072503 | 68 | 225 | 2.0 | 3.0 | 0.00 | 0.08 | 0.00 | 75 | 1017.0 |
| 20260509072003 | 67 | 0 | 0.0 | 3.0 | 0.00 | 0.08 | 0.00 | 76 | 1017.2 |
| 20260509071503 | 67 | 0 | 0.0 | 3.0 | 0.00 | 0.08 | 0.00 | 78 | 1017.1 |
| 20260509071004 | 67 | 225 | 1.0 | 3.0 | 0.00 | 0.08 | 0.00 | 79 | 1017.1 |
| 20260509070503 | 66 | 225 | 1.0 | 3.0 | 0.00 | 0.08 | 0.00 | 80 | 1017.2 |
| 20260509070003 | 65 | 225 | 1.0 | 3.0 | 0.00 | 0.08 | 0.00 | 82 | 1017.2 |
| 20260509065504 | 65 | 0 | 0.0 | 3.0 | 0.00 | 0.08 | 0.00 | 82 | 1017.2 |
| 20260509065003 | 64 | 0 | 0.0 | 3.0 | 0.00 | 0.08 | 0.00 | 82 | 1017.2 |
| 20260509064503 | 64 | 0 | 0.0 | 3.0 | 0.00 | 0.08 | 0.00 | 83 | 1017.2 |
| 20260509064004 | 64 | 0 | 0.0 | 3.0 | 0.00 | 0.08 | 0.00 | 83 | 1017.2 |
| 20260509063504 | 63 | 0 | 0.0 | 2.0 | 0.00 | 0.08 | 0.00 | 83 | 1017.3 |
| 20260509063003 | 63 | 0 | 0.0 | 2.0 | 0.00 | 0.08 | 0.00 | 84 | 1017.2 |
| 20260509062503 | 63 | 0 | 0.0 | 2.0 | 0.00 | 0.08 | 0.00 | 84 | 1017.1 |
| 20260509062003 | 62 | 0 | 0.0 | 2.0 | 0.00 | 0.08 | 0.00 | 84 | 1017.1 |
| 20260509061504 | 62 | 0 | 0.0 | 2.0 | 0.00 | 0.08 | 0.00 | 84 | 1017.0 |
| 20260509061003 | 62 | 225 | 1.0 | 2.0 | 0.00 | 0.08 | 0.00 | 84 | 1017.2 |
| 20260509060503 | 62 | 0 | 0.0 | 2.0 | 0.00 | 0.08 | 0.00 | 84 | 1017.2 |
| 20260509060003 | 62 | 0 | 0.0 | 3.0 | 0.00 | 0.08 | 0.00 | 84 | 1017.2 |
| 20260509055503 | 62 | 0 | 0.0 | 4.0 | 0.00 | 0.08 | 0.00 | 84 | 1017.1 |
| 20260509055004 | 62 | 225 | 1.0 | 4.0 | 0.00 | 0.08 | 0.00 | 84 | 1017.1 |
| 20260509054503 | 62 | 225 | 1.0 | 2.0 | 0.00 | 0.08 | 0.00 | 84 | 1017.0 |
| 20260509054003 | 62 | 0 | 0.0 | 2.0 | 0.00 | 0.08 | 0.00 | 84 | 1016.8 |
| 20260509053503 | 62 | 0 | 0.0 | 2.0 | 0.00 | 0.08 | 0.00 | 84 | 1016.7 |
| 20260509053004 | 62 | 0 | 0.0 | 3.0 | 0.00 | 0.08 | 0.00 | 84 | 1016.9 |
| 20260509052503 | 62 | 0 | 0.0 | 3.0 | 0.00 | 0.08 | 0.00 | 84 | 1016.8 |
| 20260509052003 | 62 | 0 | 0.0 | 3.0 | 0.00 | 0.08 | 0.00 | 83 | 1016.9 |
| 20260509051504 | 62 | 225 | 2.0 | 3.0 | 0.00 | 0.08 | 0.00 | 83 | 1016.9 |
| 20260509051004 | 62 | 0 | 0.0 | 3.0 | 0.00 | 0.08 | 0.00 | 83 | 1016.9 |
| 20260509050503 | 62 | 225 | 1.0 | 3.0 | 0.00 | 0.08 | 0.00 | 84 | 1016.8 |
| 20260509050003 | 62 | 0 | 0.0 | 2.0 | 0.00 | 0.08 | 0.00 | 84 | 1016.8 |
| 20260509045504 | 62 | 0 | 0.0 | 2.0 | 0.00 | 0.08 | 0.00 | 84 | 1016.8 |
| 20260509045003 | 62 | 0 | 0.0 | 2.0 | 0.00 | 0.08 | 0.00 | 84 | 1016.8 |
| 20260509044503 | 62 | 0 | 0.0 | 1.0 | 0.00 | 0.08 | 0.00 | 84 | 1016.7 |
| 20260509044004 | 62 | 0 | 0.0 | 2.0 | 0.00 | 0.08 | 0.00 | 85 | 1016.6 |
| 20260509043504 | 61 | 0 | 0.0 | 2.0 | 0.00 | 0.08 | 0.00 | 85 | 1016.6 |
| 20260509043004 | 61 | 0 | 0.0 | 1.0 | 0.00 | 0.08 | 0.00 | 85 | 1016.5 |
| 20260509042503 | 61 | 0 | 0.0 | 2.0 | 0.00 | 0.08 | 0.00 | 85 | 1016.5 |
| 20260509042004 | 61 | 0 | 0.0 | 2.0 | 0.00 | 0.08 | 0.00 | 86 | 1016.6 |
| 20260509041504 | 61 | 0 | 0.0 | 3.0 | 0.00 | 0.08 | 0.00 | 86 | 1016.5 |
| 20260509041003 | 61 | 0 | 0.0 | 3.0 | 0.00 | 0.08 | 0.00 | 86 | 1016.5 |
| 20260509040503 | 61 | 0 | 0.0 | 2.0 | 0.00 | 0.08 | 0.00 | 86 | 1016.5 |
| 20260509040004 | 60 | 0 | 0.0 | 2.0 | 0.00 | 0.08 | 0.00 | 86 | 1016.6 |
| 20260509035503 | 60 | 0 | 0.0 | 2.0 | 0.00 | 0.08 | 0.00 | 86 | 1016.6 |
| 20260509035003 | 60 | 0 | 0.0 | 2.0 | 0.00 | 0.08 | 0.00 | 86 | 1016.6 |
| 20260509034504 | 60 | 0 | 0.0 | 1.0 | 0.00 | 0.08 | 0.00 | 86 | 1016.6 |
| 20260509034003 | 60 | 0 | 0.0 | 2.0 | 0.00 | 0.08 | 0.00 | 86 | 1016.8 |
| 20260509033504 | 60 | 0 | 0.0 | 2.0 | 0.00 | 0.08 | 0.00 | 86 | 1016.7 |
| 20260509033004 | 60 | 0 | 0.0 | 2.0 | 0.00 | 0.08 | 0.00 | 86 | 1016.6 |
| 20260509032503 | 60 | 0 | 0.0 | 2.0 | 0.00 | 0.08 | 0.00 | 86 | 1016.6 |
| 20260509032003 | 60 | 0 | 0.0 | 2.0 | 0.00 | 0.08 | 0.00 | 86 | 1016.4 |
| 20260509031503 | 61 | 0 | 0.0 | 2.0 | 0.00 | 0.08 | 0.00 | 86 | 1016.5 |
| 20260509031004 | 61 | 0 | 0.0 | 2.0 | 0.00 | 0.08 | 0.00 | 86 | 1016.5 |
| 20260509030503 | 61 | 0 | 0.0 | 1.0 | 0.00 | 0.08 | 0.00 | 86 | 1016.6 |
| 20260509030003 | 61 | 0 | 0.0 | 1.0 | 0.00 | 0.08 | 0.00 | 86 | 1016.6 |
| 20260509025503 | 61 | 0 | 0.0 | 1.0 | 0.00 | 0.08 | 0.00 | 86 | 1016.5 |
| 20260509025004 | 61 | 0 | 0.0 | 1.0 | 0.00 | 0.08 | 0.00 | 86 | 1016.7 |
| 20260509024503 | 61 | 0 | 0.0 | 2.0 | 0.00 | 0.08 | 0.00 | 86 | 1016.6 |
| 20260509024003 | 61 | 0 | 0.0 | 2.0 | 0.00 | 0.08 | 0.00 | 86 | 1016.6 |
| 20260509023504 | 61 | 0 | 0.0 | 2.0 | 0.00 | 0.08 | 0.00 | 86 | 1016.5 |
| 20260509023003 | 61 | 0 | 0.0 | 2.0 | 0.00 | 0.08 | 0.00 | 86 | 1016.5 |
| 20260509022503 | 61 | 0 | 0.0 | 2.0 | 0.00 | 0.08 | 0.00 | 86 | 1016.5 |
| 20260509022003 | 61 | 0 | 0.0 | 2.0 | 0.00 | 0.08 | 0.00 | 86 | 1016.5 |
| 20260509021504 | 61 | 0 | 0.0 | 2.0 | 0.00 | 0.08 | 0.00 | 87 | 1016.6 |
| 20260509021003 | 61 | 0 | 0.0 | 1.0 | 0.00 | 0.08 | 0.00 | 87 | 1016.6 |
| 20260509020504 | 61 | 0 | 0.0 | 1.0 | 0.00 | 0.08 | 0.00 | 87 | 1016.5 |
| 20260509020004 | 61 | 0 | 0.0 | 1.0 | 0.00 | 0.08 | 0.00 | 87 | 1016.6 |
| 20260509015503 | 61 | 0 | 0.0 | 1.0 | 0.00 | 0.08 | 0.00 | 87 | 1016.6 |
| 20260509015003 | 61 | 0 | 0.0 | 1.0 | 0.00 | 0.08 | 0.00 | 87 | 1016.6 |
| 20260509014504 | 61 | 0 | 0.0 | 1.0 | 0.00 | 0.08 | 0.00 | 87 | 1016.8 |
| 20260509014003 | 61 | 0 | 0.0 | 2.0 | 0.00 | 0.08 | 0.00 | 87 | 1016.7 |
| 20260509013503 | 61 | 0 | 0.0 | 2.0 | 0.00 | 0.08 | 0.00 | 87 | 1016.7 |
| 20260509013003 | 61 | 0 | 0.0 | 3.0 | 0.00 | 0.08 | 0.00 | 87 | 1016.7 |
| 20260509012503 | 61 | 0 | 0.0 | 3.0 | 0.00 | 0.08 | 0.00 | 87 | 1016.6 |
| 20260509012003 | 61 | 0 | 0.0 | 2.0 | 0.00 | 0.08 | 0.00 | 87 | 1016.9 |
| 20260509011503 | 61 | 0 | 0.0 | 2.0 | 0.00 | 0.08 | 0.00 | 87 | 1016.9 |
| 20260509011004 | 61 | 0 | 0.0 | 2.0 | 0.00 | 0.08 | 0.00 | 87 | 1017.0 |
| 20260509010503 | 61 | 225 | 2.0 | 2.0 | 0.00 | 0.08 | 0.00 | 87 | 1016.9 |
| 20260509010003 | 61 | 0 | 0.0 | 2.0 | 0.00 | 0.08 | 0.00 | 87 | 1016.9 |
| 20260509005503 | 61 | 0 | 0.0 | 2.0 | 0.00 | 0.08 | 0.00 | 87 | 1016.9 |
| 20260509005004 | 61 | 225 | 1.0 | 2.0 | 0.00 | 0.08 | 0.00 | 87 | 1017.0 |
| 20260509004503 | 61 | 0 | 0.0 | 2.0 | 0.00 | 0.08 | 0.00 | 87 | 1017.0 |
| 20260509004003 | 61 | 0 | 0.0 | 1.0 | 0.00 | 0.08 | 0.00 | 87 | 1017.0 |
| 20260509003503 | 61 | 0 | 0.0 | 1.0 | 0.00 | 0.08 | 0.00 | 87 | 1017.0 |
| 20260509003004 | 61 | 0 | 0.0 | 1.0 | 0.00 | 0.08 | 0.00 | 87 | 1017.0 |
| 20260509002503 | 61 | 0 | 0.0 | 1.0 | 0.00 | 0.08 | 0.00 | 87 | 1017.1 |
| 20260509002003 | 61 | 0 | 0.0 | 2.0 | 0.00 | 0.08 | 0.00 | 87 | 1017.2 |
| 20260509001503 | 61 | 0 | 0.0 | 2.0 | 0.00 | 0.08 | 0.00 | 87 | 1017.2 |
| 20260509001004 | 61 | 0 | 0.0 | 1.0 | 0.00 | 0.08 | 0.00 | 87 | 1017.3 |
| 20260509000504 | 61 | 0 | 0.0 | 2.0 | 0.00 | 0.08 | 0.00 | 87 | 1017.4 |
| 20260509000004 | 61 | 0 | 0.0 | 2.0 | 0.00 | 0.08 | 0.00 | 87 | 1017.5 |
| 20260508235503 | 61 | 0 | 0.0 | 2.0 | 0.00 | 0.08 | 0.00 | 87 | 1017.4 |
| 20260508235003 | 61 | 0 | 0.0 | 2.0 | 0.00 | 0.08 | 0.00 | 87 | 1017.4 |
| 20260508234504 | 61 | 0 | 0.0 | 2.0 | 0.00 | 0.08 | 0.00 | 87 | 1017.5 |
| 20260508234003 | 61 | 225 | 1.0 | 2.0 | 0.00 | 0.08 | 0.00 | 86 | 1017.5 |
| 20260508233503 | 61 | 0 | 0.0 | 2.0 | 0.00 | 0.08 | 0.00 | 86 | 1017.5 |
| 20260508233003 | 61 | 0 | 0.0 | 2.0 | 0.00 | 0.08 | 0.00 | 86 | 1017.4 |
| 20260508232504 | 61 | 0 | 0.0 | 3.0 | 0.00 | 0.08 | 0.00 | 86 | 1017.5 |
| 20260508232003 | 61 | 225 | 2.0 | 3.0 | 0.00 | 0.08 | 0.00 | 86 | 1017.6 |
| 20260508231503 | 61 | 0 | 0.0 | 2.0 | 0.00 | 0.08 | 0.00 | 86 | 1017.6 |
| 20260508231003 | 61 | 0 | 0.0 | 2.0 | 0.00 | 0.08 | 0.00 | 86 | 1017.6 |
| 20260508230504 | 61 | 225 | 1.0 | 2.0 | 0.00 | 0.08 | 0.00 | 86 | 1017.5 |
| 20260508230004 | 61 | 0 | 0.0 | 0.0 | 0.00 | 0.08 | 0.00 | 86 | 1017.7 |
| 20260508225503 | 61 | 0 | 0.0 | 0.0 | 0.00 | 0.08 | 0.00 | 86 | 1017.6 |
| 20260508225003 | 61 | 0 | 0.0 | 0.0 | 0.00 | 0.08 | 0.00 | 86 | 1017.7 |
| 20260508224503 | 61 | 0 | 0.0 | 0.0 | 0.00 | 0.08 | 0.00 | 86 | 1017.7 |
| 20260508224005 | 61 | 0 | 0.0 | 0.0 | 0.00 | 0.08 | 0.00 | 86 | 1017.7 |
| 20260508223503 | 61 | 0 | 0.0 | 0.0 | 0.00 | 0.08 | 0.00 | 86 | 1017.8 |
| 20260508223003 | 61 | 0 | 0.0 | 0.0 | 0.00 | 0.08 | 0.00 | 86 | 1017.7 |
| 20260508222504 | 61 | 0 | 0.0 | 0.0 | 0.00 | 0.08 | 0.00 | 86 | 1017.7 |
| 20260508222003 | 61 | 0 | 0.0 | 0.0 | 0.00 | 0.08 | 0.00 | 86 | 1017.9 |
| 20260508221503 | 61 | 0 | 0.0 | 0.0 | 0.00 | 0.08 | 0.00 | 85 | 1017.8 |
| 20260508221003 | 61 | 0 | 0.0 | 0.0 | 0.00 | 0.08 | 0.00 | 85 | 1017.9 |
| 20260508220504 | 61 | 0 | 0.0 | 0.0 | 0.00 | 0.08 | 0.00 | 85 | 1018.0 |
| 20260508220004 | 61 | 0 | 0.0 | 0.0 | 0.00 | 0.08 | 0.00 | 85 | 1017.9 |
| 20260508215503 | 61 | 0 | 0.0 | 0.0 | 0.00 | 0.08 | 0.00 | 85 | 1018.0 |
| 20260508215003 | 61 | 0 | 0.0 | 1.0 | 0.00 | 0.08 | 0.00 | 85 | 1017.9 |
| 20260508214503 | 61 | 0 | 0.0 | 1.0 | 0.00 | 0.08 | 0.00 | 85 | 1017.9 |
| 20260508214003 | 61 | 0 | 0.0 | 1.0 | 0.00 | 0.08 | 0.00 | 85 | 1017.8 |
| 20260508213503 | 61 | 0 | 0.0 | 1.0 | 0.00 | 0.08 | 0.00 | 85 | 1017.9 |
| 20260508213004 | 61 | 0 | 0.0 | 1.0 | 0.00 | 0.08 | 0.00 | 85 | 1018.0 |
| 20260508212503 | 61 | 0 | 0.0 | 1.0 | 0.00 | 0.08 | 0.00 | 85 | 1018.0 |
| 20260508212003 | 61 | 0 | 0.0 | 1.0 | 0.00 | 0.08 | 0.00 | 85 | 1018.0 |
| 20260508211503 | 61 | 0 | 0.0 | 2.0 | 0.00 | 0.08 | 0.00 | 85 | 1018.1 |
| 20260508211004 | 61 | 0 | 0.0 | 2.0 | 0.00 | 0.08 | 0.00 | 85 | 1018.2 |
| 20260508210503 | 61 | 0 | 0.0 | 2.0 | 0.00 | 0.08 | 0.00 | 85 | 1018.2 |
| 20260508210003 | 61 | 0 | 0.0 | 2.0 | 0.00 | 0.08 | 0.00 | 85 | 1018.3 |
| 20260508205504 | 61 | 0 | 0.0 | 2.0 | 0.00 | 0.08 | 0.08 | 85 | 1018.2 |
| 20260508205004 | 62 | 0 | 0.0 | 2.0 | 0.00 | 0.08 | 0.08 | 85 | 1018.2 |
| 20260508204503 | 62 | 0 | 0.0 | 2.0 | 0.00 | 0.08 | 0.08 | 85 | 1018.2 |
| 20260508204003 | 62 | 0 | 0.0 | 2.0 | 0.00 | 0.08 | 0.08 | 85 | 1018.2 |
| 20260508203503 | 62 | 0 | 0.0 | 2.0 | 0.00 | 0.08 | 0.08 | 85 | 1018.2 |
| 20260508203004 | 62 | 0 | 0.0 | 0.0 | 0.00 | 0.08 | 0.08 | 85 | 1018.0 |
| 20260508202503 | 62 | 0 | 0.0 | 2.0 | 0.00 | 0.08 | 0.08 | 84 | 1018.2 |
| 20260508202003 | 62 | 0 | 0.0 | 2.0 | 0.00 | 0.08 | 0.08 | 84 | 1018.0 |
| 20260508201503 | 62 | 0 | 0.0 | 2.0 | 0.00 | 0.08 | 0.08 | 84 | 1018.1 |
| 20260508201004 | 62 | 0 | 0.0 | 2.0 | 0.00 | 0.08 | 0.08 | 84 | 1018.4 |
| 20260508200503 | 62 | 0 | 0.0 | 2.0 | 0.00 | 0.08 | 0.08 | 84 | 1018.2 |
| 20260508200003 | 62 | 0 | 0.0 | 2.0 | 0.00 | 0.08 | 0.08 | 84 | 1018.4 |
| 20260508195504 | 62 | 0 | 0.0 | 2.0 | 0.00 | 0.08 | 0.08 | 84 | 1018.3 |
| 20260508195003 | 62 | 0 | 0.0 | 1.0 | 0.00 | 0.08 | 0.08 | 84 | 1018.3 |
| 20260508194503 | 62 | 0 | 0.0 | 2.0 | 0.00 | 0.08 | 0.08 | 84 | 1018.2 |
| 20260508194004 | 62 | 0 | 0.0 | 2.0 | 0.00 | 0.08 | 0.08 | 84 | 1018.2 |
| 20260508193505 | 62 | 0 | 0.0 | 2.0 | 0.00 | 0.08 | 0.08 | 84 | 1018.2 |
| 20260508193004 | 62 | 0 | 0.0 | 2.0 | 0.00 | 0.08 | 0.08 | 84 | 1018.1 |
| 20260508192503 | 62 | 0 | 0.0 | 2.0 | 0.00 | 0.08 | 0.08 | 84 | 1018.1 |